Location: Miami, Florida
(25.6830°N, 80.1700°W)
Time: 17:48:49
(UTC-04:00)

N. Korean satellite - Pass Details

Date: 10 November 2017
Orbit: 460 x 514 km, 97.2° (Epoch: 22 November)

Event Time Altitude Azimuth Distance (km) Brightness Sun altitude
Rises 19:42:23 0° 176° (S) 2,470 10.3 -15.7°
Reaches altitude 10° 19:44:27 10° 180° (S) 1,598 9.3 -16.1°
Maximum altitude 19:47:49 57° 260° (W) 544 7.1 -16.9°
Drops below altitude 10° 19:51:12 10° 340° (NNW) 1,609 9.3 -17.6°
Sets 19:53:17 0° 344° (NNW) 2,491 10.2 -18.1°
